Location: Mitty Observatory
(35.9148°N, 88.8847°W)
Time: 00:31:02
(UTC-06:00)

LightSail 2 - Pass Details

Date: 24 January 2021
Orbit: 690 x 703 km, 24.0° (Epoch: 02 March)

Event Time Altitude Azimuth Distance (km) Brightness Sun altitude
Rises 06:18:13 0° 234° (SW) 3,040 8.0 -9.0°
Reaches altitude 10° 06:21:15 10° 216° (SW) 2,124 7.4 -8.4°
Maximum altitude 06:24:41 19° 173° (S) 1,624 7.3 -7.8°
Drops below altitude 10° 06:28:08 10° 129° (SE) 2,127 9.0 -7.1°
Sets 06:31:10 0° 111° (ESE) 3,046 11.2 -6.5°
